Weather History for Pipestone, MN

Change the Weather History Date:

Thursday, September 19, 2013

  Actual Average Record
Temperature  
Mean Temperature 63 °F -  
Max Temperature 73 °F 67 °F 86 °F (1998)
Min Temperature 51 °F 46 °F 35 °F (2003)
Degree Days  
Heating Degree Days 2    
Growing Degree Days 13 (Base 50)    
Moisture  
Dew Point 58 °F    
Average Humidity 77    
Maximum Humidity 100    
Minimum Humidity 41    
Precipitation  
Precipitation 0.46 in - - ()
Sea Level Pressure  
Sea Level Pressure 29.79 in    
Wind  
Wind Speed 8 mph (NW)    
Max Wind Speed 23 mph    
Max Gust Speed 36 mph    
Visibility 10 miles    
Events Rain , Thunderstorm    
Averages and records for this station are not official NWS values.
T = Trace of Precipitation, MM = Missing Value Source: NWS Daily Summary

Daily Weather History Graph

Daily Weather History Graph

Search for Another Location

Airport:

Trip Planner

Search our weather history database for the weather conditions in past years. The results will help you decide how hot, cold, wet, or windy it might be!

Date:

Astronomy

Sep. 19, 2013 Rise Set
Actual Time 7:09 AM CDT 7:27 PM CDT
Civil Twilight 6:40 AM CDT 7:56 PM CDT
Nautical Twilight 6:06 AM CDT 8:30 PM CDT
Astronomical Twilight 5:31 AM CDT 9:05 PM CDT
Moon 7:23 PM CDT (9/19) 7:21 AM CDT (9/19)
Length of Visible Light 13h 16m
Length of Day
12h 18m
Full, 100% of the Moon is Illuminated
Sep 19
Full
Sep 26
Last Quarter
Oct 4
New
Oct 11
First Quarter
Oct 18
Full

Hourly Weather History & Observations

Time (CDT) Temp. Dew Point Humidity Pressure Visibility Wind Dir Wind Speed Gust Speed Precip Events Conditions
12:13 AM 73.4 °F 66.2 °F 78% 29.66 in 10.0 mi South 6.9 mph - N/A   Clear
12:33 AM 71.6 °F 66.2 °F 83% 29.66 in 10.0 mi SSW 4.6 mph - N/A   Clear
12:53 AM 71.6 °F 66.2 °F 83% 29.66 in 10.0 mi South 5.8 mph - N/A   Clear
1:13 AM 71.6 °F 66.2 °F 83% 29.67 in 10.0 mi South 6.9 mph - N/A   Clear
1:33 AM 71.6 °F 66.2 °F 83% 29.66 in 10.0 mi South 8.1 mph - N/A   Clear
1:53 AM 71.6 °F 66.2 °F 83% 29.70 in 10.0 mi North 12.7 mph - N/A   Clear
2:13 AM 71.6 °F 66.2 °F 83% 29.69 in 10.0 mi NNW 6.9 mph - N/A   Clear
2:33 AM 71.6 °F 66.2 °F 83% 29.68 in 10.0 mi South 6.9 mph - N/A   Clear
2:53 AM 69.8 °F 66.2 °F 88% 29.69 in 10.0 mi Calm Calm - N/A   Clear
3:13 AM 69.8 °F 66.2 °F 88% 29.68 in 10.0 mi SSE 3.5 mph - N/A   Clear
3:34 AM 69.8 °F 66.2 °F 88% 29.66 in 10.0 mi East 3.5 mph - N/A   Clear
3:53 AM 69.8 °F 66.2 °F 88% 29.67 in 10.0 mi ESE 3.5 mph - N/A   Clear
4:13 AM 69.8 °F 66.2 °F 88% 29.66 in 10.0 mi East 4.6 mph - N/A   Clear
4:34 AM 68.0 °F 64.4 °F 88% 29.66 in 10.0 mi East 5.8 mph - N/A   Clear
4:53 AM 68.0 °F 64.4 °F 88% 29.65 in 10.0 mi ESE 8.1 mph - N/A   Clear
5:13 AM 68.0 °F 64.4 °F 88% 29.66 in 10.0 mi ENE 4.6 mph - N/A   Clear
5:34 AM 68.0 °F 64.4 °F 88% 29.69 in 10.0 mi Calm Calm - N/A   Scattered Clouds
5:53 AM 66.2 °F 64.4 °F 94% 29.67 in 10.0 mi ESE 3.5 mph - N/A Thunderstorm Scattered Clouds
6:13 AM 66.2 °F 64.4 °F 94% 29.67 in 10.0 mi SE 3.5 mph - N/A   Clear
6:33 AM 66.2 °F 64.4 °F 94% 29.65 in 10.0 mi Calm Calm - N/A   Clear
6:53 AM 66.2 °F 64.4 °F 94% 29.65 in 10.0 mi Calm Calm - N/A   Scattered Clouds
7:13 AM 66.2 °F 64.4 °F 94% 29.73 in 7.0 mi West 23.0 mph 33.4 mph N/A Thunderstorm Mostly Cloudy
7:33 AM 64.4 °F 62.6 °F 94% 29.70 in 3.0 mi NW 20.7 mph 35.7 mph 0.45 in Rain , Thunderstorm Heavy Thunderstorms and Rain
7:53 AM 62.6 °F 62.6 °F 100% 29.70 in 10.0 mi North 8.1 mph - 0.01 in Rain , Thunderstorm Light Thunderstorms and Rain
8:13 AM 64.4 °F 62.6 °F 94% 29.69 in 10.0 mi NNE 9.2 mph - N/A   Scattered Clouds
8:33 AM 64.4 °F 62.6 °F 94% 29.70 in 10.0 mi North 9.2 mph - N/A   Clear
8:53 AM 64.4 °F 62.6 °F 94% 29.70 in 10.0 mi North 9.2 mph - N/A   Clear
9:13 AM 66.2 °F 60.8 °F 83% 29.70 in 10.0 mi North 10.4 mph - N/A   Clear
9:33 AM 64.4 °F 60.8 °F 88% 29.71 in 10.0 mi WNW 5.8 mph - N/A   Clear
9:53 AM 66.2 °F 62.6 °F 88% 29.75 in 10.0 mi WNW 9.2 mph - N/A   Clear
10:13 AM 66.2 °F 62.6 °F 88% 29.78 in 10.0 mi NW 12.7 mph - N/A   Scattered Clouds
10:33 AM 66.2 °F 62.6 °F 88% 29.79 in 10.0 mi NW 11.5 mph 18.4 mph N/A   Mostly Cloudy
10:53 AM 66.2 °F 62.6 °F 88% 29.80 in 10.0 mi NNW 8.1 mph - N/A   Scattered Clouds
11:13 AM 66.2 °F 62.6 °F 88% 29.81 in 10.0 mi NW 11.5 mph 18.4 mph N/A   Scattered Clouds
11:33 AM 66.2 °F 62.6 °F 88% 29.81 in 10.0 mi North 8.1 mph - N/A   Scattered Clouds
11:53 AM 66.2 °F 62.6 °F 88% 29.82 in 10.0 mi NNW 8.1 mph 18.4 mph N/A   Scattered Clouds
12:13 PM 66.2 °F 60.8 °F 83% 29.83 in 10.0 mi NNW 8.1 mph - N/A   Mostly Cloudy
12:33 PM 66.2 °F 60.8 °F 83% 29.84 in 10.0 mi NNW 9.2 mph - N/A   Scattered Clouds
12:53 PM 69.8 °F 60.8 °F 73% 29.84 in 10.0 mi NNW 11.5 mph 16.1 mph N/A   Scattered Clouds
1:13 PM 69.8 °F 60.8 °F 73% 29.85 in 10.0 mi NNW 10.4 mph 16.1 mph N/A   Scattered Clouds
1:33 PM 69.8 °F 59.0 °F 68% 29.85 in 10.0 mi NNW 6.9 mph - N/A   Scattered Clouds
1:53 PM 71.6 °F 57.2 °F 60% 29.85 in 10.0 mi NNW 11.5 mph - N/A   Clear
2:13 PM 71.6 °F 57.2 °F 60% 29.85 in 10.0 mi NW 10.4 mph 16.1 mph N/A   Clear
2:33 PM 73.4 °F 57.2 °F 57% 29.85 in 10.0 mi NW 13.8 mph 17.3 mph N/A   Clear
2:53 PM 73.4 °F 55.4 °F 53% 29.84 in 10.0 mi NW 11.5 mph - N/A   Clear
3:13 PM 73.4 °F 53.6 °F 50% 29.84 in 10.0 mi NW 12.7 mph 20.7 mph N/A   Clear
3:33 PM 73.4 °F 51.8 °F 47% 29.84 in 10.0 mi NW 16.1 mph 23.0 mph N/A   Clear
3:53 PM 73.4 °F 50.0 °F 44% 29.85 in 10.0 mi NW 13.8 mph 23.0 mph N/A   Clear
4:13 PM 73.4 °F 48.2 °F 41% 29.86 in 10.0 mi NW 19.6 mph 26.5 mph N/A   Clear
4:33 PM 73.4 °F 48.2 °F 41% 29.87 in 10.0 mi NW 16.1 mph 27.6 mph N/A   Clear
4:53 PM 71.6 °F 46.4 °F 41% 29.87 in 10.0 mi NW 12.7 mph 26.5 mph N/A   Clear
5:13 PM 69.8 °F 46.4 °F 43% 29.88 in 10.0 mi NW 13.8 mph 32.2 mph N/A   Clear
5:33 PM 69.8 °F 46.4 °F 43% 29.88 in 10.0 mi WNW 18.4 mph 27.6 mph N/A   Scattered Clouds
5:53 PM 68.0 °F 46.4 °F 46% 29.89 in 10.0 mi WNW 17.3 mph 21.9 mph N/A   Scattered Clouds
6:13 PM 66.2 °F 46.4 °F 49% 29.89 in 10.0 mi WNW 12.7 mph 19.6 mph N/A   Scattered Clouds
6:33 PM 64.4 °F 46.4 °F 52% 29.90 in 10.0 mi NW 15.0 mph 21.9 mph N/A   Clear
6:53 PM 64.4 °F 46.4 °F 52% 29.88 in 10.0 mi NNW 10.4 mph - N/A   Clear
7:13 PM 64.4 °F 50.0 °F 59% 29.88 in 10.0 mi NNW 9.2 mph - N/A Rain Light Rain
7:33 PM 62.6 °F 51.8 °F 68% 29.90 in 10.0 mi WNW 10.4 mph - N/A Rain Light Rain
7:53 PM 59.0 °F 53.6 °F 82% 29.90 in 10.0 mi WNW 8.1 mph - 0.01 in Rain Light Rain
8:13 PM 59.0 °F 53.6 °F 82% 29.91 in 10.0 mi WNW 6.9 mph - N/A   Light Drizzle
8:33 PM 59.0 °F 51.8 °F 77% 29.91 in 10.0 mi NW 11.5 mph 18.4 mph N/A   Overcast
8:53 PM 57.2 °F 51.8 °F 82% 29.91 in 10.0 mi NW 13.8 mph - N/A   Mostly Cloudy
9:13 PM 57.2 °F 51.8 °F 82% 29.91 in 10.0 mi NW 15.0 mph 18.4 mph N/A   Scattered Clouds
9:33 PM 57.2 °F 50.0 °F 77% 29.91 in 10.0 mi NW 13.8 mph 18.4 mph N/A   Clear
9:53 PM 57.2 °F 50.0 °F 77% 29.92 in 10.0 mi NW 13.8 mph 19.6 mph N/A   Clear
10:13 PM 55.4 °F 48.2 °F 77% 29.93 in 10.0 mi WNW 11.5 mph - N/A   Clear
10:33 PM 55.4 °F 48.2 °F 77% 29.94 in 10.0 mi NW 11.5 mph 18.4 mph N/A   Clear
10:53 PM 55.4 °F 48.2 °F 77% 29.94 in 10.0 mi NW 10.4 mph 16.1 mph N/A   Clear
11:13 PM 53.6 °F 48.2 °F 82% 29.95 in 10.0 mi WNW 8.1 mph - N/A   Clear
11:33 PM 53.6 °F 48.2 °F 82% 29.96 in 10.0 mi WNW 6.9 mph - N/A   Clear
11:53 PM 51.8 °F 48.2 °F 88% 29.96 in 10.0 mi West 4.6 mph - N/A   Clear